Location: *
(43.9900°N, 3.4811°E)
Time: 07:33:40
(UTC+00:00)

S3M - Pass Details

Date: 25 August 2019
Orbit: 949 x 1004 km, 83.0° (Epoch: 15 October)

Event Time Altitude Azimuth Distance (km) Brightness Sun altitude
Rises 20:15:27 0° 197° (SSW) 3,687 6.8 -17.2°
Reaches altitude 10° 20:18:01 10° 200° (SSW) 2,735 6.2 -17.6°
Maximum altitude 20:24:12 62° 281° (W) 1,096 4.5 -18.5°
Drops below altitude 10° 20:30:22 10° 2° (N) 2,715 6.8 -19.4°
Sets 20:32:55 0° 6° (N) 3,658 7.5 -19.7°
